#timestamp,LO_Frequency,Hit,StdDev 
1697680815.5,286047001.6,N
1697680835.4,286047002.0,N
1697680855.2,286047000.1,N
1697680875.1,286047002.7,N
1697680876.0,286047002.7,N
1697680895.8,286047002.7,N
1697680915.6,286047001.9,N
1697680935.5,286047001.9,N
1697680955.3,286047002.3,N
1697680975.2,286047000.4,N
1697680995.9,286047002.7,N
1697681015.7,286047000.5,N
1697681035.6,286046999.7,N
1697681055.4,286046999.9,N
1697681075.2,286047000.0,N
1697681095.1,286046999.7,N
1697681096.0,286046999.7,N
1697681115.8,286047002.7,N
1697681135.7,286047002.3,N
1697681155.5,286047001.5,N
1697681175.3,286047002.2,N
1697681195.2,286047002.6,N
1697681215.0,286047002.4,N
1697681215.9,286047002.4,N
1697681235.7,286047001.5,N
1697681255.6,286046999.8,N
1697681275.4,286046999.8,N
1697681295.3,286047002.5,N
1697681315.1,286047002.6,N
1697681316.0,286047002.6,N
1697681335.8,286047000.3,N
1697681355.7,286046998.1,N
1697681375.5,286047000.5,N
1697681395.3,286047000.7,N
1697681415.2,286047001.8,N
1697681435.0,286047002.3,N
1697681435.9,286047002.3,N
1697681455.8,286046999.9,N
1697681475.6,286047002.6,N
1697681495.4,286047002.1,N
1697681515.3,286047001.7,N
1697681535.1,286047002.6,N
1697681555.9,286047004.4,Y
1697681575.7,286047002.7,P
1697681595.5,286047001.9,N
1697681615.4,286047001.9,P
1697681635.2,286047000.2,N
1697681655.0,286047000.3,N
1697681655.9,286047000.3,N
1697681675.8,286047002.5,N
1697681695.6,286047000.5,N
1697681715.5,286047000.9,N
1697681735.3,286047002.7,N
1697681755.1,286047000.1,N
1697681775.9,286046999.9,N
1697681795.7,286046999.8,N
1697681815.5,286047002.3,N
1697681835.4,286047002.0,N
1697681855.2,286047001.4,N
1697681875.1,286047002.6,N
1697681876.0,286047002.6,N
1697681895.8,286047002.6,N
1697681915.6,286047002.7,N
1697681935.5,286047000.6,N
1697681955.3,286047000.8,N
1697681975.1,286047000.0,N
1697681995.9,286047001.0,N
1697682015.7,286047000.1,N
1697682035.6,286047000.6,N
1697682055.4,286047000.0,N
1697682075.2,286047000.9,N
1697682095.1,286046998.4,N
1697682096.0,286046998.4,N
1697682115.8,286046999.0,N
1697682135.6,286047001.2,N
1697682155.5,286046998.2,N
1697682175.3,286046999.3,N
1697682195.2,286046998.9,N
1697682215.9,286046998.4,N
1697682235.7,286047000.7,N
1697682255.6,286047001.1,N
1697682275.4,286047000.9,N
1697682295.2,286046998.1,N
1697682315.1,286046998.1,N
1697682316.0,286046998.1,N
1697682335.8,286047000.5,N
1697682355.7,286047000.6,N
1697682375.5,286047000.9,N
1697682395.3,286047000.5,N
1697682415.2,286046998.6,N
1697682435.0,286047001.0,N
1697682435.9,286047001.0,N
1697682455.8,286047001.1,N
1697682475.6,286046998.1,N
1697682495.4,286047001.2,N
1697682515.3,286046998.2,N
1697682535.1,286046998.2,N
1697682555.9,286046998.7,N
1697682575.7,286046998.8,N
1697682595.5,286046999.6,N
1697682615.4,286046999.4,N
1697682635.2,286046996.9,N
1697682655.0,286046999.1,N
1697682656.0,286046999.1,N
1697682675.8,286047000.6,N
1697682695.6,286047001.1,N
1697682715.5,286046998.6,N
1697682735.3,286047000.1,N
1697682755.2,286047000.1,N
1697682775.9,286047002.7,N
1697682795.7,286047002.6,N
1697682815.6,286047002.5,N
1697682835.4,286047001.7,N
1697682855.2,286047001.4,N
1697682875.1,286047001.5,N
1697682876.0,286047001.5,N
1697682895.8,286047001.5,N
1697682915.7,286047000.6,N
1697682935.5,286047002.4,N
1697682955.3,286046999.9,N
1697682975.2,286046999.8,N
1697682995.0,286047000.9,N
1697682995.9,286047000.9,N
1697683015.8,286047000.2,N
1697683035.6,286046999.8,N
1697683055.4,286047000.3,N
1697683075.3,286047002.1,N
1697683095.1,286047002.3,N
1697683115.9,286047002.2,N
1697683135.7,286047000.6,N
1697683155.5,286047000.7,N
1697683175.4,286046999.9,N
1697683195.2,286047000.4,N
1697683215.0,286046999.8,N
1697683215.9,286046999.8,N
1697683235.8,286047000.3,N
1697683255.6,286047000.1,N
1697683275.5,286047000.5,N
1697683295.3,286046998.2,N
1697683315.1,286046998.1,N
1697683335.9,286047000.7,N
1697683355.7,286047001.1,N
1697683375.6,286047001.0,N
1697683395.4,286047000.5,N
1697683415.2,286046999.8,N
1697683435.1,286047002.4,N
1697683436.0,286047002.4,N
1697683455.8,286047002.8,N
1697683475.6,286047002.6,N
1697683495.5,286047000.2,N
1697683515.3,286047001.5,N
1697683535.2,286047001.3,N
1697683555.0,286047004.3,Y
1697683555.9,286047004.3,P
1697683575.8,286047004.1,N
1697683595.6,286047003.6,N
1697683615.4,286047003.6,N
1697683635.3,286047003.5,N
1697683655.1,286047003.8,Y
1697683675.8,286047000.4,P
1697683695.7,286047000.6,N
1697683715.5,286046999.9,N
1697683735.4,286047000.6,N
1697683755.2,286047002.8,N
1697683775.0,286046999.9,N
1697683775.9,286046999.9,N
1697683795.8,286046999.7,N
1697683815.6,286047001.1,N
1697683835.4,286046998.5,N
1697683855.3,286046999.3,N
1697683875.1,286046996.6,N
1697683895.9,286046997.0,N
1697683915.7,286046997.4,N
1697683935.5,286046997.4,N
1697683955.4,286046997.6,N
1697683975.2,286046997.7,N
1697684025.1,286046995.1,E
1697684035.9,286046999.0,N
1697684055.7,286047000.2,P
1697684075.6,286047000.2,N
1697684095.4,286047000.2,N
1697684115.2,286047002.0,Y
1697684135.1,286047002.0,P
1697684136.0,286047002.0,N
1697684155.8,286047001.6,N
1697684175.7,286047001.5,N
1697684195.5,286047001.4,N
1697684215.3,286047002.6,Y
1697684235.2,286046998.1,P
1697684255.0,286046999.3,N
1697684255.9,286046999.3,N
1697684275.8,286046999.0,N
1697684295.6,286046998.8,N
1697684315.4,286046998.7,N
1697684335.3,286046999.6,N
1697684355.1,286046997.7,N
1697684375.8,286046996.8,Y
1697684395.7,286046999.5,P
